Location: Kielce
(50.8833°N, 20.6167°E)
Time: 04:14:40
(UTC+01:00)

ISS - Pass Details

Date: 27 February 2019
Orbit: 406 x 411 km, 51.6° (Epoch: 21 March)

Event Time Altitude Azimuth Distance (km) Brightness Sun altitude
Exits shadow 04:46:22 14° 192° (SSW) 1,251 -1.6 -16.6°
Maximum altitude 04:48:23 23° 145° (SE) 908 -1.8 -16.3°
Drops below altitude 10° 04:51:04 10° 91° (E) 1,467 0.3 -15.9°
Sets 04:53:24 0° 76° (ENE) 2,332 1.8 -15.5°
